Regional Weather Roundup
Issued by NWS Binghamton, NY

Home | Current Version | Previous Version | Text Only | Print | Product List | Glossary On
Versions: 1 2 3 4 5 6 7 8 9 10 11 12 13 14 15 16 17 18 19 20 21 22 23 24 25 26 27
000
ASUS41 KBGM 260210
RWRBGM

REGIONAL WEATHER ROUNDUP
NATIONAL WEATHER SERVICE BINGHAMTON NY
1000 PM EDT WED APR 25 2018

Note: "fair" indicates few or no clouds below 12,000 feet with no
significant weather and/or obstructions to visibility.

* = Station(s) that does not report precipitation, such as rain,
snow, etc, also no thunder or fog.

NYZ009-015>018-022>025-036-037-044>046-055>057-062-260300
...Central New York...

CITY           SKY/WX    TMP DP  RH WIND       PRES   REMARKS
Binghamton     LGT RAIN  51  50  96 NW10      29.70S
Cortland       CLOUDY    50  50 100 CALM      29.72S
Dansville      CLOUDY    52  44  74 W5        29.76R
Elmira         CLOUDY    53  52  96 W5        29.73S
Ithaca         LGT RAIN  51  50  96 W8        29.73S FOG
Monticello     CLOUDY    53  53 100 W3        29.70S FOG
Oneonta        MOCLDY    52  52 100 CALM      29.69S
Penn Yan       CLOUDY    52  48  86 SW6       29.74R
Rome           CLOUDY    52  52 100 CALM      29.70S FOG
Sidney         CLOUDY    54  54 100 W3        29.69F FOG
Syracuse       LGT RAIN  52  52 100 W10       29.71R
$$

PAZ038>040-043-044-047-048-072-260300
...Northeast Pennsylvania...

CITY           SKY/WX    TMP DP  RH WIND       PRES   REMARKS
Hazleton       LGT RAIN  54  52  94 W5        29.73S
Scranton       CLOUDY    56  55  97 W3        29.70S
$$
&&
KEY
WCI = Wind Chill Index
VSB = Visibility
HX  = Heat Index
$$




USA.gov is the U.S. government's official web portal to all federal, state and local government web resources and services.